Weather History for KSZL - September, 2013

Change the Weather History Date:

Wednesday, September 25, 2013

  Actual Average (KDMO) Record (KDMO)
Temperature  
Mean Temperature 67 °F 65 °F  
Max Temperature 79 °F 76 °F - ()
Min Temperature 57 °F 55 °F - ()
Degree Days  
Heating Degree Days 0 3  
Month to date heating degree days 24  
Since 1 July heating degree days 25  
Cooling Degree Days 2 3  
Month to date cooling degree days 150  
Year to date cooling degree days 1435  
Growing Degree Days 17 (Base 50)    
Moisture  
Dew Point 62 °F    
Average Humidity 93    
Maximum Humidity 100    
Minimum Humidity 62    
Precipitation  
Precipitation 0.00 in 0.13 in - ()
Month to date precipitation 3.49  
Year to date precipitation 31.43  
Sea Level Pressure  
Sea Level Pressure 29.85 in    
Wind  
Wind Speed 4 mph (NNE)    
Max Wind Speed 7 mph    
Max Gust Speed -    
Visibility 7 miles    
Events Fog    
T = Trace of Precipitation, MM = Missing Value Source: NWS Daily Summary

Daily Weather History Graph

Daily Weather History Graph

Search for Another Location

Airport or City:

Trip Planner

Search our weather history database for the weather conditions in past years. The results will help you decide how hot, cold, wet, or windy it might be!

Date:

Astronomy

Sep. 25, 2013 Rise Set
Actual Time 7:04 AM CDT 7:05 PM CDT
Civil Twilight 6:38 AM CDT 7:32 PM CDT
Nautical Twilight 6:07 AM CDT 8:03 PM CDT
Astronomical Twilight 5:35 AM CDT 8:34 PM CDT
Moon 11:16 PM CDT (9/25) 1:07 PM CDT (9/25)
Length of Visible Light 12h 54m
Length of Day
12h 01m
Waning Gibbous, 64% of the Moon is Illuminated
Sep 25
Waning Gibbous
Sep 26
Last Quarter
Oct 4
New
Oct 11
First Quarter
Oct 18
Full

Hourly Weather History & Observations

Time (CDT) Temp. Dew Point Humidity Pressure Visibility Wind Dir Wind Speed Gust Speed Precip Events Conditions
12:58 AM 57.7 °F 57.7 °F 100% 29.83 in 10.0 mi West 4.6 mph - N/A   Clear
1:58 AM 57.2 °F 57.2 °F 100% 29.83 in 9.0 mi West 4.6 mph - N/A   Clear
2:48 AM 59.0 °F 59.0 °F 100% 29.83 in 9.0 mi NNW 5.8 mph - N/A   Mostly Cloudy
2:58 AM 58.5 °F 58.5 °F 100% 29.83 in 9.0 mi NNW 5.8 mph - N/A   Mostly Cloudy
3:03 AM 59.0 °F 59.0 °F 100% 29.84 in 9.0 mi NW 6.9 mph - N/A   Overcast
3:53 AM 59.0 °F 59.0 °F 100% 29.83 in 2.5 mi NW 5.8 mph - N/A   Overcast
3:58 AM 59.2 °F 59.2 °F 100% 29.83 in 1.8 mi NNW 3.5 mph - N/A   Overcast
4:03 AM 59.0 °F 59.0 °F 100% 29.83 in 1.0 mi North 3.5 mph - N/A   Overcast
4:08 AM 59.0 °F 59.0 °F 100% 29.83 in 0.8 mi North 4.6 mph - N/A   Overcast
4:36 AM 59.0 °F 59.0 °F 100% 29.84 in 0.2 mi NNE 5.8 mph - N/A Fog Fog
4:58 AM 59.9 °F 59.9 °F 100% 29.84 in 0.2 mi North 4.6 mph - N/A Fog Fog
5:58 AM 60.1 °F 60.1 °F 100% 29.85 in 0.2 mi NNE 3.5 mph - N/A Fog Fog
6:58 AM 59.9 °F 59.9 °F 100% 29.87 in 0.2 mi NNE 3.5 mph - N/A Fog Fog
9:58 AM 62.1 °F 62.1 °F 100% 29.90 in 4.0 mi NE 4.6 mph - N/A   Overcast
10:18 AM 62.6 °F 62.6 °F 100% 29.90 in 7.0 mi NE 3.5 mph - N/A   Overcast
10:58 AM 63.0 °F 63.0 °F 100% 29.91 in 10.0 mi NE 4.6 mph - N/A   Overcast
11:58 AM 64.4 °F 64.4 °F 100% 29.91 in 7.0 mi Calm Calm - N/A   Overcast
1:12 PM 71.6 °F 66.2 °F 83% 29.89 in 10.0 mi Calm Calm - N/A   Mostly Cloudy
1:58 PM 72.7 °F 65.3 °F 78% 29.88 in 10.0 mi Variable 1.2 mph - N/A   Scattered Clouds
2:58 PM 75.6 °F 65.5 °F 71% 29.86 in 10.0 mi Calm Calm - N/A   Partly Cloudy
3:58 PM 77.5 °F 64.0 °F 63% 29.85 in 10.0 mi Variable 1.2 mph - N/A   Scattered Clouds
4:58 PM 77.9 °F 63.9 °F 62% 29.83 in 10.0 mi East 4.6 mph - N/A   Scattered Clouds
5:58 PM 76.1 °F 66.2 °F 71% 29.83 in 10.0 mi ESE 4.6 mph - N/A   Partly Cloudy
6:58 PM 72.0 °F 66.4 °F 83% 29.85 in 10.0 mi ESE 3.5 mph - N/A   Partly Cloudy
7:58 PM 68.4 °F 66.6 °F 94% 29.85 in 10.0 mi SE 3.5 mph - N/A   Clear
8:58 PM 65.5 °F 65.5 °F 100% 29.86 in 10.0 mi SE 2.3 mph - N/A   Clear
9:58 PM 64.4 °F 64.4 °F 100% 29.86 in 10.0 mi SE 4.6 mph - N/A   Clear
10:58 PM 62.4 °F 62.4 °F 100% 29.86 in 10.0 mi ESE 5.8 mph - N/A   Clear
11:58 PM 61.7 °F 61.7 °F 100% 29.87 in 10.0 mi SE 4.6 mph - N/A   Clear